Bryce Canyon, UT

6:00 AM MST on December 15, 2019 (GMT -0700)
Bryce Canyon

Weather History for KBCE - October, 2019

Change the Weather History Date:

Sunday, October 13, 2019

  Actual Average Record
Temperature  
Mean Temperature 38 °F -  
Max Temperature 61 °F 59 °F 75 °F (2015)
Min Temperature 15 °F 27 °F 10 °F (2008)
Degree Days  
Heating Degree Days 27    
Moisture  
Dew Point 1 °F    
Average Humidity 25    
Maximum Humidity 39    
Minimum Humidity 10    
Precipitation  
Precipitation 0.00 in - - ()
Sea Level Pressure  
Sea Level Pressure 30.02 in    
Wind  
Wind Speed 7 mph (SW)    
Max Wind Speed 21 mph    
Max Gust Speed 26 mph    
Visibility 10 miles    
Events      
Averages and records for this station are not official NWS values.
T = Trace of Precipitation, MM = Missing Value Source: NWS Daily Summary

Daily Weather History Graph

Daily Weather History Graph

Search for Another Location

Airport or City:

Astronomy

Oct. 13, 2019 Rise Set
Actual Time 7:34 AM MDT 6:54 PM MDT
Civil Twilight 7:08 AM MDT 7:20 PM MDT
Nautical Twilight 6:38 AM MDT 7:50 PM MDT
Astronomical Twilight 6:07 AM MDT 8:21 PM MDT
Moon 7:17 PM MDT (10/13) 7:14 AM MDT (10/13)
Length of Visible Light 12h 11m
Length of Day
11h 19m
Full, 100% of the Moon is Illuminated
Oct 13
Full
Oct 13
Full
Oct 21
Last Quarter
Oct 27
New
Nov 4
First Quarter

Hourly Weather History & Observations

Time (MDT) Temp. Windchill Dew Point Humidity Pressure Visibility Wind Dir Wind Speed Gust Speed Precip Events Conditions
12:53 AM 21.0 °F 14.6 °F -5.1 °F 32% 30.04 in 10.0 mi West 4.6 mph - N/A   Clear
1:53 AM 19.9 °F 13.4 °F -5.1 °F 33% 30.03 in 10.0 mi WSW 4.6 mph - N/A   Clear
2:53 AM 21.0 °F 13.4 °F -4.0 °F 33% 30.02 in 10.0 mi West 5.8 mph - N/A   Clear
3:53 AM 15.1 °F 9.4 °F -7.1 °F 37% 30.05 in 10.0 mi West 3.5 mph - N/A   Clear
4:53 AM 17.1 °F 10.0 °F -6.0 °F 36% 30.03 in 10.0 mi West 4.6 mph - N/A   Clear
5:53 AM 19.0 °F 8.2 °F -5.1 °F 34% 30.02 in 10.0 mi West 9.2 mph - N/A   Clear
6:53 AM 19.0 °F 8.2 °F -5.1 °F 34% 30.06 in 10.0 mi West 9.2 mph - N/A   Clear
7:53 AM 18.0 °F 12.7 °F -5.1 °F 36% 30.16 in 10.0 mi West 3.5 mph - N/A   Clear
8:53 AM 30.0 °F 25.2 °F -2.9 °F 24% 30.13 in 10.0 mi West 4.6 mph - N/A   Clear
9:53 AM 44.1 °F - -2.0 °F 15% 30.07 in 10.0 mi Calm Calm - N/A   Clear
10:53 AM 52.0 °F - -0.0 °F 12% 30.02 in 10.0 mi SE 9.2 mph - N/A   Clear
11:53 AM 55.0 °F - 1.0 °F 11% 30.00 in 10.0 mi SE 15.0 mph - N/A   Clear
12:53 PM 55.0 °F - 5.0 °F 13% 30.00 in 10.0 mi SE 12.7 mph 20.7 mph N/A   Clear
1:53 PM 57.0 °F - 7.0 °F 14% 29.97 in 10.0 mi SE 20.7 mph 26.5 mph N/A   Clear
2:53 PM 59.0 °F - 7.0 °F 13% 29.95 in 10.0 mi SE 13.8 mph 21.9 mph N/A   Clear
3:53 PM 60.1 °F - 7.0 °F 12% 29.96 in 10.0 mi SE 12.7 mph - N/A   Clear
4:53 PM 61.0 °F - 3.0 °F 10% 29.94 in 10.0 mi SW 11.5 mph 20.7 mph N/A   Clear
5:53 PM 59.0 °F - 8.1 °F 13% 29.94 in 10.0 mi South 15.0 mph - N/A   Clear
6:53 PM 50.0 °F - 7.0 °F 18% 29.98 in 10.0 mi SSW 8.1 mph - N/A   Clear
7:53 PM 37.0 °F 32.4 °F 3.0 °F 24% 30.06 in 9.0 mi WSW 5.8 mph - N/A   Clear
8:53 PM 32.0 °F 24.8 °F 3.0 °F 29% 30.04 in 10.0 mi WSW 8.1 mph - N/A   Clear
9:53 PM 30.9 °F 25.2 °F 5.0 °F 33% 29.98 in 10.0 mi WSW 5.8 mph - N/A   Clear
10:53 PM 28.0 °F 20.8 °F 5.0 °F 38% 29.96 in 10.0 mi SW 6.9 mph - N/A   Clear
11:53 PM 27.0 °F 20.5 °F 5.0 °F 39% 29.96 in 10.0 mi WSW 5.8 mph - N/A   Clear